Date String (YYYY-MM-DD hh:mm:ss) UTC,Instrument flags,Ambient pressure (hPa),Sample flow (lpm),Bypass flow (lpm),Sample temperature (°C),Ambient temperature (°C),ASC tube jacket temperature (°C),LED temperature (°C),Box temperature (°C),Sample RH (%),Span deviation,Mass concentration (μg/m³),Mass concentration (μg/m³),Mass concentration (μg/m³)
DateTimeUTC,F1_M11,P_M11,Q1_M11,Q2_M11,T1_M11,T2_M11,T3_M11,T4_M11,T5_M11,U1_M11,ZSPAN_M11,X0_M11,X2_M11,X1_M11
2023-02-08 03:00:00,,0828.6,5.00,0.00,23.1,21.5,00.0,32.1,24.8,08.9,0000.0,0008.75,0003.44,0002.20
2023-02-08 03:01:00,,0828.4,4.98,0.00,23.1,21.5,00.0,32.1,24.8,08.9,0000.0,0008.88,0003.44,0002.18
2023-02-08 03:02:00,,0828.3,4.97,0.00,23.1,21.5,00.0,32.1,24.8,09.0,0000.0,0009.38,0003.42,0002.17
2023-02-08 03:03:00,,0828.3,5.06,0.00,23.1,21.5,00.0,32.1,24.8,09.0,0000.0,0009.48,0003.44,0002.16
2023-02-08 03:04:00,,0828.3,5.06,0.00,23.1,21.5,00.0,32.1,24.8,09.1,0000.0,0009.49,0003.43,0002.17
2023-02-08 03:05:00,,0828.3,4.97,0.00,23.1,21.5,00.0,32.1,24.8,09.1,0000.0,0009.38,0003.42,0002.17
2023-02-08 03:06:00,,0828.3,4.96,0.00,23.1,21.5,00.0,32.0,24.8,09.1,0000.0,0009.41,0003.41,0002.16
2023-02-08 03:07:00,,0828.3,5.07,0.00,23.0,21.5,00.0,32.0,24.8,09.1,0000.0,0009.62,0003.45,0002.17
2023-02-08 03:08:00,,0828.3,5.02,0.00,23.0,21.5,00.0,32.0,24.7,09.0,0000.0,0009.60,0003.43,0002.14
2023-02-08 03:09:00,,0828.3,4.98,0.00,23.0,21.4,00.0,32.0,24.7,08.9,0000.0,0009.80,0003.41,0002.14
2023-02-08 03:10:00,,0828.3,4.99,0.00,23.0,21.4,00.0,32.0,24.7,08.9,0000.0,0010.42,0003.38,0002.14
2023-02-08 03:11:00,,0828.3,5.01,0.00,23.0,21.4,00.0,32.0,24.7,09.0,0000.0,0009.83,0003.32,0002.15
2023-02-08 03:12:00,,0828.3,5.04,0.00,23.0,21.4,00.0,32.0,24.6,09.0,0000.0,0009.35,0003.29,0002.16
2023-02-08 03:13:00,,0828.3,5.00,0.00,23.0,21.4,00.0,32.0,24.6,09.0,0000.0,0009.26,0003.33,0002.15
2023-02-08 03:14:00,,0828.3,5.04,0.00,23.0,21.4,00.0,31.9,24.6,08.9,0000.0,0009.51,0003.32,0002.14
2023-02-08 03:15:00,,0828.3,5.09,0.00,22.9,21.3,00.0,31.9,24.6,09.0,0000.0,0009.08,0003.29,0002.11
2023-02-08 03:16:00,,0828.3,4.93,0.00,22.9,21.3,00.0,31.9,24.6,09.0,0000.0,0009.48,0003.26,0002.07
2023-02-08 03:17:00,,0828.3,5.05,0.00,22.9,21.3,00.0,31.9,24.6,09.0,0000.0,0009.70,0003.27,0002.08
2023-02-08 03:18:00,,0828.3,4.96,0.00,22.9,21.3,00.0,31.9,24.6,09.0,0000.0,0009.66,0003.25,0002.08
2023-02-08 03:19:00,,0828.3,5.05,0.00,22.9,21.3,00.0,31.9,24.6,09.0,0000.0,0010.34,0003.25,0002.09
2023-02-08 03:20:00,,0828.3,5.04,0.00,22.9,21.3,00.0,31.9,24.5,09.0,0000.0,0010.53,0003.27,0002.10
2023-02-08 03:21:00,,0828.3,5.00,0.00,22.9,21.3,00.0,31.9,24.6,09.0,0000.0,0009.84,0003.25,0002.09
2023-02-08 03:22:00,,0828.3,5.06,0.00,22.9,21.3,00.0,31.8,24.6,09.1,0000.0,0009.90,0003.26,0002.08
2023-02-08 03:23:00,,0828.3,4.93,0.00,22.9,21.4,00.0,31.8,24.6,09.0,0000.0,0010.51,0003.31,0002.07
2023-02-08 03:24:00,,0828.3,4.99,0.00,22.9,21.4,00.0,31.8,24.6,09.0,0000.0,0010.75,0003.30,0002.08
2023-02-08 03:25:00,,0828.3,5.06,0.00,22.9,21.4,00.0,31.8,24.6,09.1,0000.0,0011.42,0003.32,0002.11
2023-02-08 03:26:00,,0828.3,5.07,0.00,22.9,21.4,00.0,31.8,24.6,09.0,0000.0,0011.38,0003.33,0002.13
2023-02-08 03:27:00,,0828.3,4.94,0.00,22.9,21.4,00.0,31.8,24.6,09.0,0000.0,0010.96,0003.36,0002.16
2023-02-08 03:28:00,,0828.2,4.95,0.00,22.9,21.4,00.0,31.8,24.6,09.0,0000.0,0010.73,0003.39,0002.19
2023-02-08 03:29:00,,0828.3,5.11,0.00,22.9,21.4,00.0,31.8,24.6,09.0,0000.0,0010.64,0003.41,0002.22
2023-02-08 03:30:00,,0828.3,5.04,0.00,22.9,21.4,00.0,31.8,24.6,09.0,0000.0,0010.27,0003.40,0002.24
2023-02-08 03:31:00,,0828.3,5.11,0.00,22.9,21.4,00.0,31.8,24.6,09.0,0000.0,0010.10,0003.45,0002.26
2023-02-08 03:32:00,,0828.3,4.98,0.00,22.8,21.4,00.0,31.8,24.5,09.0,0000.0,0010.11,0003.48,0002.28
2023-02-08 03:33:00,,0828.3,5.00,0.00,22.8,21.4,00.0,31.8,24.6,08.9,0000.0,0010.11,0003.51,0002.30
2023-02-08 03:34:00,,0828.2,4.98,0.00,22.8,21.4,00.0,31.8,24.6,08.9,0000.0,0009.93,0003.49,0002.32
2023-02-08 03:35:00,,0828.5,5.02,0.00,22.8,21.4,00.0,31.8,24.6,08.9,0000.0,0009.94,0003.48,0002.33
2023-02-08 03:36:00,,0828.3,4.99,0.00,22.8,21.4,00.0,31.7,24.5,08.9,0000.0,0009.12,0003.49,0002.31
2023-02-08 03:37:00,,0828.2,4.93,0.00,22.8,21.4,00.0,31.7,24.5,08.9,0000.0,0008.98,0003.46,0002.31
2023-02-08 03:38:00,,0828.2,5.11,0.00,22.8,21.3,00.0,31.7,24.5,09.0,0000.0,0009.04,0003.43,0002.32
2023-02-08 03:39:00,,0828.2,4.97,0.00,22.8,21.3,00.0,31.7,24.5,09.0,0000.0,0009.31,0003.43,0002.31
2023-02-08 03:40:00,,0828.2,5.10,0.00,22.8,21.3,00.0,31.7,24.5,09.0,0000.0,0009.31,0003.42,0002.30
2023-02-08 03:41:00,,0828.2,4.97,0.00,22.8,21.3,00.0,31.7,24.5,09.1,0000.0,0009.32,0003.44,0002.30
2023-02-08 03:42:00,,0828.2,5.05,0.00,22.8,21.3,00.0,31.7,24.5,09.0,0000.0,0009.10,0003.41,0002.31
2023-02-08 03:43:00,,0828.2,4.97,0.00,22.8,21.3,00.0,31.7,24.5,09.1,0000.0,0009.44,0003.39,0002.33
2023-02-08 03:44:00,,0828.2,4.94,0.00,22.8,21.3,00.0,31.7,24.4,09.0,0000.0,0010.14,0003.38,0002.33
2023-02-08 03:45:00,,0828.2,4.94,0.00,22.7,21.3,00.0,31.7,24.4,09.1,0000.0,0009.85,0003.38,0002.34
2023-02-08 03:46:00,,0828.2,4.88,0.00,22.7,21.2,00.0,31.7,24.4,09.1,0000.0,0009.43,0003.38,0002.37
2023-02-08 03:47:00,,0828.2,4.97,0.00,22.7,21.2,00.0,31.7,24.4,09.0,0000.0,0009.03,0003.35,0002.39
2023-02-08 03:48:00,,0828.2,4.88,0.00,22.7,21.2,00.0,31.7,24.4,09.0,0000.0,0009.24,0003.33,0002.38
2023-02-08 03:49:00,,0828.2,5.01,0.00,22.7,21.2,00.0,31.7,24.4,09.0,0000.0,0009.30,0003.33,0002.36
2023-02-08 03:50:00,,0828.2,4.90,0.00,22.7,21.2,00.0,31.7,24.4,09.1,0000.0,0009.06,0003.30,0002.36
2023-02-08 03:51:00,,0828.2,4.98,0.00,22.7,21.2,00.0,31.6,24.4,09.1,0000.0,0009.93,0003.27,0002.34
2023-02-08 03:52:00,,0828.2,5.07,0.00,22.7,21.2,00.0,31.6,24.4,09.2,0000.0,0009.77,0003.23,0002.33
2023-02-08 03:53:00,,0828.3,5.02,0.00,22.7,21.2,00.0,31.6,24.4,09.1,0000.0,0010.91,0003.25,0002.32
2023-02-08 03:54:00,,0828.2,5.01,0.00,22.7,21.1,00.0,31.6,24.3,09.1,0000.0,0010.54,0003.23,0002.28
2023-02-08 03:55:00,,0828.1,4.98,0.00,22.7,21.1,00.0,31.6,24.3,09.0,0000.0,0010.32,0003.24,0002.28
2023-02-08 03:56:00,,0828.1,4.90,0.00,22.6,21.1,00.0,31.6,24.3,09.0,0000.0,0011.22,0003.24,0002.27
2023-02-08 03:57:00,,0828.1,5.02,0.00,22.6,21.1,00.0,31.6,24.3,09.0,0000.0,0011.56,0003.26,0002.26
2023-02-08 03:58:00,,0828.1,4.96,0.00,22.6,21.1,00.0,31.6,24.2,09.0,0000.0,0011.59,0003.28,0002.25
2023-02-08 03:59:00,,0828.1,4.95,0.00,22.6,21.0,00.0,31.6,24.3,09.0,0000.0,0011.66,0003.32,0002.26
